Regional Weather Roundup
Issued by NWS

Home | Current Version | Previous Version | Graphics & Text | Print | Product List | Glossary On
Versions: 1 2 3 4 5 6 7 8 9 10 11 12 13 14 15 16 17 18 19 20 21 22 23 24 25 26 27 28 29 30 31 32 33 34 35 36 37 38 39 40 41 42 43 44 45 46 47 48 49 50
000
ASUS43 KDMX 040907
RWRIA

WEATHER ROUNDUP FOR IOWA
NATIONAL WEATHER SERVICE DES MOINES IA
400 AM CDT SAT JUL 04 2015

NOTE: "FAIR" INDICATES FEW OR NO CLOUDS BELOW 12,000 FEET WITH NO
SIGNIFICANT WEATHER AND/OR OBSTRUCTIONS TO VISIBILITY.

* - THESE STATIONS ARE NOT NWS STATIONS...THUS NOT UNDER NWS
QUALITY CONTROL.  THEY ALSO DO NOT REPORT WEATHER SUCH
AS PRECIPITATION OR FOG.

IAZ001>003-012>014-020>022-031>034-043>046-041000-
   NORTHWEST IOWA

CITY           SKY/WX    TMP DP  RH WIND       PRES   REMARKS
CARROLL *      CLOUDY    57  54  88 CALM      29.99S
CHEROKEE *     CLEAR     55  55 100 CALM      29.99S FOG
DENISON *      CLOUDY    54  54 100 CALM      29.98S
LE MARS *        N/A     57  57 100 CALM      29.99S
ORANGE CITY *  CLEAR     59  55  88 CALM      29.99S
SHELDON *      MOCLDY    59  59 100 SW3       29.97S
SIOUX CITY     PTCLDY    59  56  89 SE3       29.98S
SPENCER        CLEAR     58  53  84 W5        29.98S
STORM LAKE *   CLEAR     59  54  82 SW7       30.00S
$$

IAZ055>058-069>071-079>083-090>094-041000-
   SOUTHWEST IOWA

CITY           SKY/WX    TMP DP  RH WIND       PRES   REMARKS
ATLANTIC *     CLOUDY    52  52 100 N3        30.00S
AUDUBON *      CLEAR     52  48  87 CALM      30.00F
CLARINDA *     CLEAR     54  54 100 CALM      30.01S FOG
COUNCIL BLFS * CLOUDY    63  54  72 S3        29.99F
CRESTON *      CLEAR     61  57  88 S3        30.00S
HARLAN  *      CLEAR     52  52 100 CALM      30.03S
LAMONI         CLEAR     64  54  69 MISG      29.99F
RED OAK *      MOCLDY    55  55 100 CALM      29.99F
SHENANDOAH *     N/A     55  55 100 CALM      30.00S
$$

IAZ047>049-059>061-072>074-084-041000-
   CENTRAL IOWA

CITY           SKY/WX    TMP DP  RH WIND       PRES   REMARKS
AMES           CLEAR     55  54  96 CALM      29.98S
ANKENY *       CLEAR     57  57 100 CALM      29.98S FOG
CHARITON *     CLOUDY    59  55  88 SW3       29.99S
DES MOINES     PTCLDY    64  55  72 SW3       29.98S
GRINNELL*      CLEAR     61  57  88 CALM      29.99S
KNOXVILLE *    CLEAR     59  54  82 SW6       29.98R
MARSHALLTOWN   CLEAR     57  56  96 CALM      29.97S
PELLA *        CLEAR     59  59 100 CALM      29.99F
PERRY *          N/A     55  55 100 CALM      29.99S
$$

IAZ004>006-015-016-023>025-035-036-041000-
   NORTH CENTRAL IOWA

CITY           SKY/WX    TMP DP  RH WIND       PRES   REMARKS
ALGONA *       CLOUDY    59  55  88 SW6       29.98S
CLARION *      CLEAR     57  54  88 S3        29.98S
ESTHERVILLE    CLEAR     59  56  89 W8        29.97S
FORT DODGE *   CLEAR     55  52  88 CALM      29.98S
MASON CITY     CLEAR     61  55  81 W5        29.98S
FOREST CITY *  CLEAR     54  54 100 CALM      29.98S
IOWA FALLS *     N/A     57  54  88 CALM      29.99S
$$

IAZ007>011-017>019-026>030-037>042-050>054-066-041000-
   NORTHEAST IOWA

CITY           SKY/WX    TMP DP  RH WIND       PRES   REMARKS
CEDAR RAPIDS   CLEAR     57  56  96 CALM      29.97S
CHARLES CITY * CLEAR     57  57 100 S5        29.97F
CLINTON *      CLEAR     55  54  94 NW3       30.00S
DECORAH *        N/A    N/A N/A N/A MISG        N/A
DUBUQUE        CLEAR     56  54  93 SW3       29.98S
MONTICELLO *   CLEAR     55  55 100 CALM      29.97S
OELWEIN *      CLEAR     55  55 100 S3        29.98
WATERLOO       CLEAR     57  55  93 CALM      29.96S
$$

IAZ064-065-067-068-078-041000-
   EAST CENTRAL IOWA

CITY           SKY/WX    TMP DP  RH WIND       PRES   REMARKS
DAVENPORT      CLEAR     56  54  93 CALM      29.98S FOG
IOWA CITY      CLEAR     57  55  93 CALM      29.98F
MT. PLEASANT * CLEAR     59  55  88 CALM      29.98S FOG
MUSCATINE *    CLEAR     59  57  94 CALM      29.97F
QUAD CITIES    CLEAR     58  55  90 CALM      29.97S FOG
$$

IAZ062-063-075>077-085>089-095>099-041000-
   SOUTHEAST IOWA

CITY           SKY/WX    TMP DP  RH WIND       PRES   REMARKS
BURLINGTON     CLEAR     60  59  96 CALM      29.96F
FAIRFIELD *    CLEAR     55  54  94 CALM      29.98S
FORT MADISON * CLEAR     61  61 100 CALM      29.98S FOG
KEOKUK *       CLEAR     61  59  94 CALM      29.97S FOG
OSKALOOSA *      N/A     55  54  94 CALM      29.98F
CENTERVILLE *  CLEAR     57  57 100 CALM      30.01R
OTTUMWA        CLEAR     57  57 100 NW3       29.96F
WASHINGTON *   CLEAR     55  55 100 CALM      29.99S
$$

ABBREVIATIONS USED IN REMARKS
   TC - TEMPERATURES IN CELSIUS
  WCI - WIND CHILL INDEX
   HX - HEAT INDEX
  VSB - VISIBILITY
$$




USA.gov is the U.S. government's official web portal to all federal, state and local government web resources and services.